Location: Newark
(7.0858°N, 171.3717°E)
Time: 12:58:55
(UTC+00:00)

Vanguard 1 Rocket - Pass Details

Date: 29 November 2020
Orbit: 655 x 4222 km, 34.3° (Epoch: 23 January)

Event Time Altitude Azimuth Distance (km) Brightness Sun altitude
Rises 09:02:33 0° 215° (SW) 5,714 12.1 -39.6°
Reaches altitude 10° 09:05:54 10° 209° (SSW) 5,108 11.6 -40.4°
Maximum altitude 09:22:01 49° 137° (SE) 4,222 10.4 -44.0°
Enters shadow 09:23:40 49° 126° (SE) 4,338 10.4 -44.4°
